Powrót do katalogu

STARLINK-6342

AktywnyŁącznośćVLEO
NORAD 56770·PAYLOAD·🇺🇸 United States

Wystrzelony May 31, 2023 z Vandenberg Space Force Base

Loading…

Następne Przeloty (najbliższe 24 godziny)

TLE

ŚwieżeSource: CelesTrak SupGP

Epoka: Sep 15, 2026, 01:33 UTC

1 56770C 23078D   26258.06506944  .00676650  00000+0  55972-1 0  2588
2 56770  70.0006 246.9734 0003193 264.8165  95.7191 14.98493405    13

Śledź STARLINK-6342 w czasie rzeczywistym z AllMySat

Download on the App Store